When you browse on this site, cookies collect data to enhance your experience and personalize the content and advertising you see.
Visit our Privacy Policy to learn more. By continuing to use the site, you agree to this use of cookies and data.
  • In Switzerland
  • List of Countries
  • For 7 days
  • Water Temperature
  • Weather Map
  • Weather Widgets
  • user-avatar
    Login

    Hourly Weather Florianópolis

    Today, 8 April, Wednesday

    Time Temperature Precipitation Wind Pressure Humidity
    00:00 +17°C° 0 mm 4 mps 764 mmHg 66%
    01:00 +17°C° 0 mm 3 mps 764 mmHg 66%
    02:00 +16°C° 0 mm 3 mps 764 mmHg 66%
    03:00 +16°C° 0 mm 3 mps 763 mmHg 66%
    04:00 +16°C° 0 mm 3 mps 763 mmHg 68%
    05:00 +14°C° 0 mm 3 mps 764 mmHg 70%
    06:00 +14°C° 0 mm 3 mps 764 mmHg 73%
    07:00 +16°C° 0 mm 3 mps 764 mmHg 67%
    08:00 +18°C° 0 mm 3 mps 764 mmHg 61%
    09:00 +19°C° 0 mm 2 mps 764 mmHg 55%
    10:00 +21°C° 0 mm 3 mps 764 mmHg 51%
    11:00 +22°C° 0 mm 3 mps 764 mmHg 47%
    12:00 +24°C° 0 mm 3 mps 763 mmHg 43%
    13:00 +23°C° 0 mm 4 mps 763 mmHg 44%
    14:00 +23°C° 0 mm 4 mps 762 mmHg 45%
    15:00 +23°C° 0 mm 4 mps 762 mmHg 46%
    16:00 +22°C° 0 mm 4 mps 762 mmHg 53%
    17:00 +20°C° 0 mm 4 mps 762 mmHg 59%
    18:00 +19°C° 0 mm 4 mps 762 mmHg 65%
    19:00 +18°C° 0 mm 4 mps 762 mmHg 67%
    20:00 +18°C° 0 mm 4 mps 763 mmHg 69%
    21:00 +17°C° 0 mm 4 mps 763 mmHg 72%
    22:00 +17°C° 0 mm 4 mps 763 mmHg 73%
    23:00 +17°C° 0 mm 3 mps 763 mmHg 75%

    Tomorrow, 9 April, Thursday

    Time Temperature Precipitation Wind Pressure Humidity
    00:00 +16°C° 0 mm 3 mps 763 mmHg 76%
    01:00 +16°C° 0 mm 3 mps 763 mmHg 76%
    02:00 +16°C° 0 mm 2 mps 762 mmHg 75%
    03:00 +15°C° 0 mm 2 mps 762 mmHg 75%
    04:00 +15°C° 0 mm 2 mps 762 mmHg 73%
    05:00 +15°C° 0 mm 2 mps 762 mmHg 72%
    06:00 +15°C° 0 mm 2 mps 762 mmHg 70%
    07:00 +17°C° 0 mm 2 mps 762 mmHg 64%
    08:00 +20°C° 0 mm 1 mps 762 mmHg 58%
    09:00 +22°C° 0 mm 1 mps 763 mmHg 52%
    10:00 +23°C° 0 mm 1 mps 762 mmHg 48%
    11:00 +25°C° 0 mm 1 mps 762 mmHg 44%
    12:00 +26°C° 0 mm 2 mps 762 mmHg 40%
    13:00 +26°C° 0 mm 2 mps 761 mmHg 44%
    14:00 +26°C° 0 mm 3 mps 761 mmHg 48%
    15:00 +25°C° 0 mm 4 mps 760 mmHg 52%
    16:00 +23°C° 0 mm 4 mps 761 mmHg 61%
    17:00 +21°C° 0 mm 4 mps 761 mmHg 69%
    18:00 +20°C° 0 mm 4 mps 761 mmHg 78%
    19:00 +20°C° 0 mm 4 mps 761 mmHg 80%
    20:00 +19°C° 0 mm 4 mps 761 mmHg 81%
    21:00 +18°C° 0 mm 4 mps 762 mmHg 82%
    22:00 +18°C° 0 mm 3 mps 762 mmHg 83%
    23:00 +18°C° 0 mm 3 mps 761 mmHg 84%

    Day after tomorrow, 10 April, Friday

    Time Temperature Precipitation Wind Pressure Humidity
    00:00 +17°C° 0 mm 3 mps 761 mmHg 85%
    01:00 +17°C° 0 mm 3 mps 761 mmHg 86%
    02:00 +17°C° 0 mm 2 mps 761 mmHg 86%
    03:00 +17°C° 0 mm 2 mps 761 mmHg 86%
    04:00 +16°C° 0 mm 2 mps 761 mmHg 85%
    05:00 +16°C° 0 mm 2 mps 760 mmHg 84%
    06:00 +16°C° 0 mm 2 mps 760 mmHg 82%
    07:00 +19°C° 0 mm 1 mps 761 mmHg 74%
    08:00 +21°C° 0 mm 1 mps 761 mmHg 65%
    09:00 +23°C° 0 mm 1 mps 761 mmHg 56%
    10:00 +24°C° 0 mm 2 mps 761 mmHg 54%
    11:00 +25°C° 0 mm 2 mps 761 mmHg 51%
    12:00 +26°C° 0 mm 2 mps 761 mmHg 49%
    13:00 +25°C° 0 mm 3 mps 760 mmHg 53%
    14:00 +24°C° 0 mm 3 mps 760 mmHg 58%
    15:00 +23°C° 0 mm 4 mps 760 mmHg 63%
    16:00 +22°C° 0.1 mm 4 mps 760 mmHg 68%
    17:00 +21°C° 0.1 mm 4 mps 760 mmHg 74%
    18:00 +20°C° 0.1 mm 4 mps 760 mmHg 79%
    19:00 +19°C° 0.1 mm 4 mps 761 mmHg 82%
    20:00 +18°C° 0.1 mm 4 mps 761 mmHg 84%
    21:00 +18°C° 0.1 mm 3 mps 761 mmHg 87%
    22:00 +17°C° 0 mm 3 mps 761 mmHg 87%
    23:00 +17°C° 0 mm 3 mps 761 mmHg 88%

    11 April, Saturday

    Time Temperature Precipitation Wind Pressure Humidity
    00:00 +17°C° 0 mm 3 mps 761 mmHg 88%
    01:00 +17°C° 0 mm 2 mps 761 mmHg 88%
    02:00 +17°C° 0 mm 2 mps 761 mmHg 88%
    03:00 +16°C° 0 mm 2 mps 761 mmHg 87%
    04:00 +16°C° 0 mm 2 mps 761 mmHg 87%
    05:00 +16°C° 0 mm 2 mps 761 mmHg 87%
    06:00 +16°C° 0 mm 2 mps 762 mmHg 86%
    07:00 +18°C° 0 mm 2 mps 762 mmHg 78%
    08:00 +21°C° 0 mm 1 mps 762 mmHg 70%
    09:00 +22°C° 0 mm 1 mps 763 mmHg 62%
    10:00 +23°C° 0 mm 2 mps 763 mmHg 58%
    11:00 +24°C° 0 mm 2 mps 762 mmHg 54%
    12:00 +26°C° 0 mm 3 mps 762 mmHg 51%
    13:00 +25°C° 0 mm 3 mps 762 mmHg 53%
    14:00 +25°C° 0 mm 3 mps 762 mmHg 55%
    15:00 +25°C° 0 mm 3 mps 762 mmHg 57%
    16:00 +24°C° 0 mm 3 mps 762 mmHg 63%
    17:00 +21°C° 0 mm 3 mps 762 mmHg 70%
    18:00 +20°C° 0 mm 2 mps 762 mmHg 76%
    19:00 +20°C° 0 mm 2 mps 763 mmHg 76%
    20:00 +20°C° 0 mm 2 mps 763 mmHg 76%
    21:00 +20°C° 0 mm 2 mps 763 mmHg 76%
    22:00 +19°C° 0 mm 2 mps 763 mmHg 79%
    23:00 +19°C° 0 mm 1 mps 763 mmHg 82%

    12 April, Sunday

    Time Temperature Precipitation Wind Pressure Humidity
    00:00 +19°C° 0 mm 1 mps 763 mmHg 84%
    01:00 +18°C° 0 mm 1 mps 763 mmHg 84%
    02:00 +18°C° 0 mm 1 mps 763 mmHg 85%
    03:00 +18°C° 0 mm 1 mps 763 mmHg 85%
    04:00 +18°C° 0 mm 1 mps 763 mmHg 85%
    05:00 +18°C° 0 mm 1 mps 763 mmHg 85%
    06:00 +18°C° 0 mm 1 mps 763 mmHg 85%
    07:00 +20°C° 0 mm 1 mps 764 mmHg 77%
    08:00 +21°C° 0 mm 1 mps 764 mmHg 70%
    09:00 +23°C° 0 mm 1 mps 764 mmHg 62%
    10:00 +24°C° 0 mm 1 mps 764 mmHg 58%
    11:00 +25°C° 0 mm 2 mps 764 mmHg 55%
    12:00 +26°C° 0 mm 2 mps 764 mmHg 51%
    13:00 +26°C° 0 mm 3 mps 763 mmHg 52%
    14:00 +27°C° 0 mm 3 mps 763 mmHg 53%
    15:00 +27°C° 0 mm 3 mps 762 mmHg 53%
    16:00 +25°C° 0 mm 3 mps 762 mmHg 61%
    17:00 +22°C° 0 mm 3 mps 763 mmHg 68%
    18:00 +21°C° 0 mm 3 mps 763 mmHg 75%
    19:00 +20°C° 0 mm 2 mps 763 mmHg 77%
    20:00 +20°C° 0 mm 2 mps 763 mmHg 79%
    21:00 +19°C° 0 mm 2 mps 764 mmHg 81%
    22:00 +20°C° 0 mm 2 mps 764 mmHg 79%
    23:00 +20°C° 0 mm 2 mps 764 mmHg 77%

    13 April, Monday

    Time Temperature Precipitation Wind Pressure Humidity
    00:00 +20°C° 0 mm 2 mps 764 mmHg 75%
    01:00 +20°C° 0 mm 2 mps 763 mmHg 76%
    02:00 +20°C° 0 mm 2 mps 763 mmHg 78%
    03:00 +20°C° 0 mm 2 mps 763 mmHg 79%
    04:00 +19°C° 0 mm 2 mps 763 mmHg 81%
    05:00 +19°C° 0 mm 2 mps 763 mmHg 83%
    06:00 +18°C° 0 mm 2 mps 763 mmHg 85%
    07:00 +20°C° 0 mm 2 mps 763 mmHg 78%
    08:00 +21°C° 0 mm 2 mps 763 mmHg 70%
    09:00 +24°C° 0 mm 2 mps 763 mmHg 63%
    10:00 +25°C° 0 mm 2 mps 763 mmHg 56%
    11:00 +27°C° 0 mm 2 mps 763 mmHg 50%
    12:00 +28°C° 0 mm 3 mps 763 mmHg 44%
    13:00 +28°C° 0 mm 3 mps 762 mmHg 45%
    14:00 +28°C° 0 mm 4 mps 761 mmHg 47%
    15:00 +28°C° 0 mm 4 mps 761 mmHg 48%
    16:00 +26°C° 0 mm 4 mps 761 mmHg 57%
    17:00 +23°C° 0 mm 4 mps 761 mmHg 67%
    18:00 +21°C° 0 mm 3 mps 761 mmHg 76%
    19:00 +21°C° 0 mm 3 mps 761 mmHg 80%
    20:00 +20°C° 0 mm 3 mps 761 mmHg 83%
    21:00 +19°C° 0 mm 3 mps 761 mmHg 86%
    22:00 +20°C° 0 mm 3 mps 761 mmHg 85%
    23:00 +20°C° 0 mm 3 mps 761 mmHg 83%
    Show more